Location: Bothwell
(42.3833°S, 147.0000°E)
Time: 20:45:13
(UTC+11:00)

AO-85 - Pass Details

Date: 02 October 2022
Orbit: 513 x 757 km, 64.8° (Epoch: 24 November)

Event Time Altitude Azimuth Distance (km) Brightness Sun altitude
Rises 21:19:12 0° 322° (NW) 2,703 ? -22.0°
Reaches altitude 10° 21:21:20 10° 320° (NW) 1,845 ? -22.3°
Maximum altitude 21:25:28 71° 235° (SW) 629 ? -23.0°
Drops below altitude 10° 21:29:58 10° 150° (SSE) 2,009 ? -23.7°
Sets 21:32:22 0° 148° (SSE) 2,967 ? -24.1°
